This is the latest recevied weather packets stored in our database for station/object KJ4EBE. If no packets are shown the sender has not sent any weather packets the latest 10 day(s).
| Time | Temp. | Humidity | Pressure | Rain* | Wind** | Luminosity | Snow |
|---|---|---|---|---|---|---|---|
| 1777477071 | 20° C | 99% | 1013.8 hPa | 0.51 mm | - | 53 W/m² | - |
| 1777476768 | 20° C | 99% | 1013.9 hPa | 0 mm | - | 34 W/m² | - |
| 1777476464 | 20° C | 98% | 1013.9 hPa | 0.51 mm | - | 25 W/m² | - |
| 1777476161 | 20° C | 98% | 1013.8 hPa | 0.51 mm | - | 29 W/m² | - |
| 1777475857 | 20.56° C | 98% | 1013.6 hPa | 0.51 mm | - | 27 W/m² | - |
| 1777475553 | 20.56° C | 98% | 1013.6 hPa | 0.51 mm | - | 25 W/m² | - |
| 1777475250 | 20.56° C | 97% | 1013.7 hPa | 0 mm | - | 27 W/m² | - |
| 1777474945 | 21.11° C | 97% | 1013.4 hPa | 0 mm | - | 15 W/m² | - |
| 1777474641 | 21.11° C | 97% | 1013.3 hPa | 0 mm | - | 20 W/m² | - |
| 1777474338 | 21.67° C | 96% | 1013.3 hPa | 0 mm | - | 24 W/m² | - |
| 1777474035 | 21.67° C | 96% | 1013.2 hPa | 0 mm | - | 15 W/m² | - |
| 1777473733 | 22.22° C | 95% | 1013 hPa | 0 mm | - | 15 W/m² | - |
| 1777473429 | 23.33° C | 94% | 1013.1 hPa | 0 mm | - | 12 W/m² | - |
| 1777473124 | 24.44° C | 94% | 1012.9 hPa | 0 mm | - | 12 W/m² | - |
| 1777472821 | 25° C | 94% | 1012.7 hPa | 0 mm | - | 28 W/m² | - |
| 1777472518 | 25° C | 94% | 1012.6 hPa | 0 mm | - | 48 W/m² | - |
| 1777472215 | 25° C | 94% | 1012.7 hPa | 0 mm | - | 36 W/m² | - |
| 1777471910 | 25° C | 94% | 1012.5 hPa | 0 mm | - | 32 W/m² | - |
| 1777471608 | 25° C | 94% | 1012.6 hPa | 0 mm | - | 23 W/m² | - |
| 1777471304 | 25° C | 93% | 1012.2 hPa | 0 mm | - | 28 W/m² | - |
| 1777471000 | 25° C | 93% | 1012.2 hPa | 0 mm | - | 27 W/m² | - |
| 1777470698 | 25.56° C | 92% | 1012.6 hPa | 0 mm | - | 25 W/m² | - |
| 1777470388 | 25.56° C | 92% | 1012.4 hPa | 0 mm | - | 62 W/m² | - |
| 1777470085 | 25.56° C | 92% | 1012.3 hPa | 0 mm | - | 73 W/m² | - |
| 1777469782 | 25° C | 93% | 1012.4 hPa | 0 mm | - | 141 W/m² | - |
* Rain latest hour (hover to see other rain measurements)
** Current wind speed in m/s (hover to see current wind gust speed)